Home   Weather   Winamac   Past weeks
Flag for USA

Past Weather in Winamac, Indiana, USA — Yesterday and Last 2 Weeks

Now
68 °F

Sunny.


Feels Like: 68 °F
Forecast: 67 / 37 °F
Wind: 7 mph from South

Location: Porter County Municipal Airport

Current Time: Oct 19, 2019 at 6:28:25 pm

Latest Report: Oct 19, 2019 at 5:56 pm


Visibility: 10 mi

Pressure: 29.75 "Hg

Humidity: 33%

Dew Point: 38 °F

Location of WinamacLocation

Past Weather in Winamac — Graph

°F

Winamac Temperature Yesterday

Maximum temperature yesterday: 60 °F (at 4:56 pm)
Minimum temperature yesterday: 32 °F (at 7:56 am)
Average temperature yesterday: 46 °F

High & Low Weather Summary for the Past Weeks

 TemperatureHumidityPressure
High75 °F (Oct 10, 3:56 pm)92% (Oct 18, 7:17 am)30.35 "Hg (Oct 18, 7:17 am)
Low32 °F (Oct 18, 7:56 am)26% (Oct 7, 2:56 pm)29.72 "Hg (Oct 15, 9:04 pm)
Average54 °F64%30.02 "Hg
* Reported Oct 4 4:56 pm — Oct 19 4:56 pm, Winamac. Weather by CustomWeather, © 2019

Note: Actual official high and low records may vary slightly from our data, if they occured in-between our weather recording intervals... More about our weather records

Advertising

Winamac Weather History for the Previous 24 Hours

Scroll right to see more
 ConditionsComfort  
Time TempWeatherWind HumidityBarometerVisibility
4:56 pm
Sat, Oct 19
70 °FSunny.10 mph32%29.75 "Hg10 mi
3:56 pm69 °FSunny.8 mph39%29.76 "Hg10 mi
2:56 pm68 °FSunny.10 mph39%29.79 "Hg10 mi
1:56 pm66 °FSunny.13 mph42%29.82 "Hg10 mi
12:56 pm62 °FSunny.12 mph46%29.86 "Hg10 mi
11:56 am60 °FSunny.12 mph49%29.88 "Hg10 mi
10:56 am54 °FSunny.9 mph62%29.90 "Hg10 mi
9:56 am50 °FSunny.9 mph63%29.92 "Hg10 mi
8:56 am45 °FSunny.7 mph71%29.91 "Hg10 mi
7:56 am42 °FSunny.6 mph76%29.92 "Hg10 mi
6:56 am41 °FClear.6 mph76%29.93 "Hg10 mi
5:56 am39 °FClear.6 mph79%29.93 "Hg10 mi
4:56 am42 °FClear.5 mph73%29.91 "Hg10 mi
3:56 am41 °FClear.6 mph76%29.92 "Hg10 mi
2:56 am43 °FClear.7 mph74%29.93 "Hg10 mi
1:56 am45 °FClear.5 mph71%29.94 "Hg10 mi
12:56 am47 °FClear.5 mph66%29.94 "Hg10 mi
11:56 pm
Fri, Oct 18
49 °FClear.7 mph61%29.95 "Hg10 mi
10:56 pm48 °FClear.7 mph63%29.96 "Hg10 mi
9:56 pm50 °FClear.6 mph61%29.98 "Hg10 mi
8:56 pm51 °FClear.3 mph59%29.98 "Hg10 mi
7:56 pm53 °FClear.6 mph55%29.97 "Hg10 mi
6:56 pm57 °FClear.6 mph49%29.97 "Hg10 mi
Weather by CustomWeather, © 2019

See weather overview